Location: Beetenbrück
(52.8113°N, 9.5946°E)
Time: 21:38:43
(UTC+00:00)

Cosmos 2221 Rocket - Pass Details

Date: 14 April 2026
Orbit: 615 x 642 km, 82.5° (Epoch: 12 May)

Event Time Altitude Azimuth Distance (km) Brightness Sun altitude
Rises 20:46:03 0° 349° (N) 2,900 8.0 -19.3°
Reaches altitude 10° 20:48:17 10° 350° (N) 1,990 7.0 -19.5°
Maximum altitude 20:52:42 85° 80° (E) 627 3.4 -19.9°
Enters shadow 20:53:52 49° 164° (SSE) 804 3.7 -20.0°
